WB4FAY-4 Weather Reports


Display with metric or nautical units.
time (UTC)temp
F
wind
direction
speed
MPH
gust
MPH
rain 1hr
in
rain 24hr
in
rain mn
in
humidity
%
barometer
mb
20260902163017 94 93 0.0 5.0 0.00 0.00 0.00 48 1020.3
20260902162517 93 100 1.0 5.0 0.00 0.00 0.00 50 1020.3
20260902162017 93 0 0.0 0.0 0.00 0.00 0.00 51 1020.3
20260902161517 92 267 0.0 4.0 0.00 0.00 0.00 51 1020.4
20260902161017 92 0 0.0 0.0 0.00 0.00 0.00 52 1020.5
20260902160517 92 0 0.0 0.0 0.00 0.00 0.00 51 1020.5
20260902160018 93 72 0.0 3.0 0.00 0.00 0.00 50 1020.7
20260902155517 93 85 1.0 5.0 0.00 0.00 0.00 49 1020.7
20260902155017 93 85 0.0 7.0 0.00 0.00 0.00 50 1020.7
20260902154516 92 30 0.0 3.0 0.00 0.00 0.00 50 1020.7
20260902154017 92 6 0.0 1.0 0.00 0.00 0.00 51 1020.7
20260902153517 92 10 0.0 3.0 0.00 0.00 0.00 53 1020.7
20260902153018 92 0 0.0 0.0 0.00 0.00 0.00 52 1020.7
20260902152517 92 0 0.0 0.0 0.00 0.00 0.00 52 1020.7
20260902152017 91 56 0.0 5.0 0.00 0.00 0.00 54 1020.7
20260902151516 91 58 5.0 2.0 0.00 0.00 0.00 56 1020.7
20260902151017 91 97 0.0 4.0 0.00 0.00 0.00 57 1020.7
20260902150517 90 54 2.0 5.0 0.00 0.00 0.00 59 1020.5
20260902150017 90 0 0.0 0.0 0.00 0.00 0.00 61 1020.5
20260902145517 89 0 0.0 0.0 0.00 0.00 0.00 61 1020.5
20260902145017 89 0 0.0 0.0 0.00 0.00 0.00 62 1020.5
20260902144518 88 0 0.0 0.0 0.00 0.00 0.00 64 1020.4
20260902144017 88 0 0.0 0.0 0.00 0.00 0.00 65 1020.5
20260902143517 87 0 0.0 0.0 0.00 0.00 0.00 67 1020.4
20260902143017 86 138 0.0 2.0 0.00 0.00 0.00 68 1020.4
20260902142517 86 143 1.0 3.0 0.00 0.00 0.00 69 1020.4
20260902142017 85 130 1.0 3.0 0.00 0.00 0.00 70 1020.4
20260902141517 85 130 2.0 2.0 0.00 0.00 0.00 71 1020.5
20260902141017 84 141 1.0 2.0 0.00 0.00 0.00 71 1020.5
20260902140517 84 0 0.0 0.0 0.00 0.00 0.00 72 1020.5
20260902140017 84 95 0.0 1.0 0.00 0.00 0.00 72 1020.7
20260902135517 83 120 0.0 2.0 0.00 0.00 0.00 73 1020.5
20260902135017 83 54 2.0 3.0 0.00 0.00 0.00 74 1020.5
20260902134517 82 86 1.0 3.0 0.00 0.00 0.00 75 1020.5
20260902134017 82 103 0.0 2.0 0.00 0.00 0.00 75 1020.5
20260902133517 81 104 1.0 2.0 0.00 0.00 0.00 76 1020.7
20260902133017 81 0 0.0 0.0 0.00 0.00 0.00 77 1020.7
20260902132517 80 83 0.0 1.0 0.00 0.00 0.00 78 1020.7
20260902132017 80 55 0.0 1.0 0.00 0.00 0.00 79 1020.5
20260902131517 80 88 1.0 4.0 0.00 0.00 0.00 80 1020.5
20260902131017 79 82 3.0 4.0 0.00 0.00 0.00 82 1020.4
20260902130517 79 86 0.0 2.0 0.00 0.00 0.00 83 1020.4
20260902130017 78 120 1.0 3.0 0.00 0.00 0.00 84 1020.5
20260902125517 78 72 2.0 2.0 0.00 0.00 0.00 85 1020.4
20260902125017 77 95 1.0 3.0 0.00 0.00 0.00 86 1020.5
20260902124517 77 90 3.0 3.0 0.00 0.00 0.00 87 1020.5
20260902124017 77 89 2.0 3.0 0.00 0.00 0.00 88 1020.4
20260902123517 76 0 0.0 0.0 0.00 0.00 0.00 89 1020.4
20260902123017 76 0 0.0 0.0 0.00 0.00 0.00 89 1020.4
20260902122517 76 0 0.0 0.0 0.00 0.00 0.00 89 1020.4
20260902122016 76 0 0.0 0.0 0.00 0.00 0.00 89 1020.3
20260902121517 76 0 0.0 0.0 0.00 0.00 0.00 89 1020.3
20260902121017 76 0 0.0 0.0 0.00 0.00 0.00 89 1020.3
20260902120517 76 0 0.0 0.0 0.00 0.00 0.00 89 1020.3
20260902120017 76 0 0.0 0.0 0.00 0.00 0.00 89 1020.3
20260902115517 76 0 0.0 0.0 0.00 0.00 0.00 89 1020.3
20260902115017 76 0 0.0 0.0 0.00 0.00 0.00 89 1020.2
20260902114517 76 0 0.0 0.0 0.00 0.00 0.00 89 1020.1
20260902114017 76 0 0.0 0.0 0.00 0.00 0.00 89 1020.0
20260902113517 76 0 0.0 0.0 0.00 0.00 0.00 88 1020.0
20260902113017 76 0 0.0 0.0 0.00 0.00 0.00 88 1020.0
20260902112517 76 0 0.0 0.0 0.00 0.00 0.00 88 1020.0
20260902112017 76 0 0.0 0.0 0.00 0.00 0.00 88 1019.9
20260902111516 76 0 0.0 0.0 0.00 0.00 0.00 88 1019.9
20260902111017 76 0 0.0 0.0 0.00 0.00 0.00 88 1019.9
20260902110517 76 0 0.0 0.0 0.00 0.00 0.00 88 1019.8
20260902110017 76 0 0.0 0.0 0.00 0.00 0.00 88 1019.9
20260902105517 76 0 0.0 0.0 0.00 0.00 0.00 88 1019.8
20260902105017 76 0 0.0 0.0 0.00 0.00 0.00 88 1019.7
20260902104518 76 0 0.0 0.0 0.00 0.00 0.00 88 1019.7
20260902104017 76 0 0.0 0.0 0.00 0.00 0.00 87 1019.7
20260902103517 76 0 0.0 0.0 0.00 0.00 0.00 87 1019.7
20260902103017 76 0 0.0 0.0 0.00 0.00 0.00 87 1019.6
20260902102517 76 0 0.0 0.0 0.00 0.00 0.00 87 1019.6
20260902102017 76 0 0.0 0.0 0.00 0.00 0.00 87 1019.6
20260902101517 76 0 0.0 0.0 0.00 0.00 0.00 87 1019.6
20260902101017 76 0 0.0 0.0 0.00 0.00 0.00 87 1019.5
20260902100518 76 0 0.0 0.0 0.00 0.00 0.00 87 1019.5
20260902100017 76 0 0.0 0.0 0.00 0.00 0.00 87 1019.5
20260902095517 76 0 0.0 0.0 0.00 0.00 0.00 87 1019.5
20260902095017 76 0 0.0 0.0 0.00 0.00 0.00 87 1019.4
20260902094517 76 0 0.0 0.0 0.00 0.00 0.00 87 1019.3
20260902094017 76 0 0.0 0.0 0.00 0.00 0.00 86 1019.2
20260902093517 76 0 0.0 0.0 0.00 0.00 0.00 86 1019.2
20260902093017 77 0 0.0 0.0 0.00 0.00 0.00 86 1019.2
20260902092517 76 0 0.0 0.0 0.00 0.00 0.00 86 1019.1
20260902092017 77 0 0.0 0.0 0.00 0.00 0.00 86 1019.1
20260902091517 77 0 0.0 0.0 0.00 0.00 0.00 86 1019.0
20260902091017 77 0 0.0 0.0 0.00 0.00 0.00 86 1019.0
20260902090517 77 0 0.0 0.0 0.00 0.00 0.00 86 1019.0
20260902090017 77 0 0.0 0.0 0.00 0.00 0.00 86 1018.9
20260902085517 77 0 0.0 0.0 0.00 0.00 0.00 86 1018.9
20260902085017 77 0 0.0 0.0 0.00 0.00 0.00 86 1018.9
20260902084518 77 0 0.0 0.0 0.00 0.00 0.00 86 1018.9
20260902084017 77 0 0.0 0.0 0.00 0.00 0.00 86 1018.8
20260902083517 77 0 0.0 0.0 0.00 0.00 0.00 86 1018.8
20260902083017 77 0 0.0 0.0 0.00 0.00 0.00 85 1018.8
20260902082517 77 0 0.0 0.0 0.00 0.00 0.00 85 1018.7
20260902082017 77 0 0.0 0.0 0.00 0.00 0.00 85 1018.7
20260902081517 77 0 0.0 0.0 0.00 0.00 0.00 85 1018.7
20260902081017 77 0 0.0 0.0 0.00 0.00 0.00 85 1018.7
20260902080517 77 0 0.0 0.0 0.00 0.00 0.00 85 1018.6
20260902080018 77 0 0.0 0.0 0.00 0.00 0.00 84 1018.6
20260902075517 77 0 0.0 0.0 0.00 0.00 0.00 84 1018.7
20260902075017 78 0 0.0 0.0 0.00 0.00 0.00 84 1018.7
20260902074517 78 0 0.0 0.0 0.00 0.00 0.00 84 1018.7
20260902074017 78 0 0.0 0.0 0.00 0.00 0.00 84 1018.7
20260902073517 78 0 0.0 0.0 0.00 0.00 0.00 83 1018.6
20260902073017 78 0 0.0 0.0 0.00 0.00 0.00 83 1018.6
20260902072517 78 0 0.0 0.0 0.00 0.00 0.00 83 1018.7
20260902072017 78 0 0.0 0.0 0.00 0.00 0.00 82 1018.7
20260902071516 78 0 0.0 0.0 0.00 0.00 0.00 82 1018.8
20260902071017 78 0 0.0 0.0 0.00 0.00 0.00 82 1018.7
20260902070517 78 0 0.0 0.0 0.00 0.00 0.00 81 1018.7
20260902070017 78 0 0.0 0.0 0.00 0.00 0.00 81 1018.8
20260902065517 79 0 0.0 0.0 0.00 0.00 0.00 81 1018.8
20260902065017 79 0 0.0 0.0 0.00 0.00 0.00 81 1018.7
20260902064518 79 0 0.0 0.0 0.00 0.00 0.00 80 1018.6
20260902064017 79 0 0.0 0.0 0.00 0.00 0.00 80 1018.7
20260902063518 78 0 0.0 0.0 0.00 0.00 0.00 80 1018.6
20260902063017 79 0 0.0 0.0 0.00 0.00 0.00 80 1018.7
20260902062517 79 0 0.0 0.0 0.00 0.00 0.00 80 1018.7
20260902062018 79 0 0.0 0.0 0.00 0.00 0.00 80 1018.7
20260902061517 79 0 0.0 0.0 0.00 0.00 0.00 80 1018.7
20260902061017 79 0 0.0 0.0 0.00 0.00 0.00 80 1018.7
20260902060517 79 0 0.0 0.0 0.00 0.00 0.00 80 1018.8
20260902060017 79 0 0.0 0.0 0.00 0.00 0.00 80 1018.8
20260902055517 79 0 0.0 0.0 0.00 0.00 0.00 80 1018.9
20260902055017 79 0 0.0 0.0 0.00 0.00 0.00 79 1018.9
20260902054517 79 0 0.0 0.0 0.00 0.00 0.00 79 1019.0
20260902054017 79 0 0.0 0.0 0.00 0.00 0.00 79 1019.0
20260902053517 79 0 0.0 0.0 0.00 0.00 0.00 79 1019.0
20260902053018 79 0 0.0 0.0 0.00 0.00 0.00 78 1019.0
20260902052517 79 0 0.0 0.0 0.00 0.00 0.00 78 1019.0
20260902052017 79 0 0.0 0.0 0.00 0.00 0.00 78 1018.9
20260902051517 80 0 0.0 0.0 0.00 0.00 0.00 78 1018.9
20260902051017 80 0 0.0 0.0 0.00 0.00 0.00 77 1018.9
20260902050517 80 0 0.0 0.0 0.00 0.00 0.00 77 1018.8
20260902050017 80 0 0.0 0.0 0.00 0.00 0.00 77 1018.9
20260902045517 80 0 0.0 0.0 0.00 0.00 0.00 76 1018.9
20260902045018 80 0 0.0 0.0 0.00 0.00 0.00 76 1018.9
20260902044517 80 0 0.0 0.0 0.00 0.00 0.00 76 1019.0
20260902044017 80 0 0.0 0.0 0.00 0.00 0.00 75 1018.9
20260902043518 80 0 0.0 0.0 0.00 0.00 0.00 75 1019.0
20260902043017 80 0 0.0 0.0 0.00 0.00 0.00 75 1019.1
20260902042517 80 0 0.0 0.0 0.00 0.00 0.00 74 1019.1
20260902042017 81 0 0.0 0.0 0.00 0.00 0.00 74 1019.1
20260902041517 81 0 0.0 0.0 0.00 0.00 0.00 73 1019.1
20260902041017 81 0 0.0 0.0 0.00 0.00 0.00 73 1019.1
20260902040517 81 0 0.0 0.0 0.00 0.00 0.00 72 1019.1
20260902040017 81 0 0.0 0.0 0.00 0.00 0.00 72 1019.2
20260902035518 81 0 0.0 0.0 0.00 0.00 0.00 72 1019.1
20260902035017 81 0 0.0 0.0 0.00 0.00 0.00 72 1019.1
20260902034518 82 0 0.0 0.0 0.00 0.00 0.00 72 1019.1
20260902034017 81 0 0.0 0.0 0.00 0.00 0.00 71 1019.0
20260902033517 81 0 0.0 0.0 0.00 0.00 0.00 71 1019.1
20260902033017 81 0 0.0 0.0 0.00 0.00 0.00 71 1019.1
20260902032517 81 0 0.0 0.0 0.00 0.00 0.00 71 1019.1
20260902032017 81 0 0.0 0.0 0.00 0.00 0.00 71 1019.0
20260902031517 82 0 0.0 0.0 0.00 0.00 0.00 70 1019.0
20260902031017 82 0 0.0 0.0 0.00 0.00 0.00 70 1019.0
20260902030517 82 0 0.0 0.0 0.00 0.00 0.00 70 1019.0
20260902030017 82 0 0.0 0.0 0.00 0.00 0.00 70 1019.0
20260902025517 82 0 0.0 0.0 0.00 0.00 0.00 70 1019.0
20260902025017 83 0 0.0 0.0 0.00 0.00 0.00 69 1019.0
20260902024517 83 0 0.0 0.0 0.00 0.00 0.00 69 1018.9
20260902024017 83 0 0.0 0.0 0.00 0.00 0.00 69 1018.9
20260902023517 83 0 0.0 0.0 0.00 0.00 0.00 69 1018.9
20260902023017 83 0 0.0 0.0 0.00 0.00 0.00 68 1018.8
20260902022517 83 0 0.0 0.0 0.00 0.00 0.00 68 1018.8
20260902022017 83 0 0.0 0.0 0.00 0.00 0.00 67 1018.7
20260902021517 83 0 0.0 0.0 0.00 0.00 0.00 68 1018.7
20260902021017 83 0 0.0 0.0 0.00 0.00 0.00 67 1018.7
20260902020517 83 0 0.0 0.0 0.00 0.00 0.00 68 1015.4
20260902020017 83 0 0.0 0.0 0.00 0.00 0.00 67 1018.5
20260902015517 84 0 0.0 0.0 0.00 0.00 0.00 67 1018.4
20260902015017 84 0 0.0 0.0 0.00 0.00 0.00 66 1018.3
20260902014517 84 0 0.0 0.0 0.00 0.00 0.00 66 1018.3
20260902014017 84 0 0.0 0.0 0.00 0.00 0.00 65 1018.3
20260902013517 84 0 0.0 0.0 0.00 0.00 0.00 65 1018.2
20260902013017 84 0 0.0 0.0 0.00 0.00 0.00 65 1018.2
20260902012517 84 0 0.0 0.0 0.00 0.00 0.00 64 1018.1
20260902012018 85 0 0.0 0.0 0.00 0.00 0.00 64 1018.1
20260902011523 85 0 0.0 0.0 0.00 0.00 0.00 63 1017.1
20260902011017 85 0 0.0 0.0 0.00 0.00 0.00 62 1018.0
20260902010517 85 0 0.0 0.0 0.00 0.00 0.00 62 1018.0
20260902010017 86 0 0.0 0.0 0.00 0.00 0.00 61 1013.1
20260902005517 86 0 0.0 0.0 0.00 0.00 0.00 1004.4
20260902005017 86 0 0.0 0.0 0.00 0.00 0.00 61 1017.9
20260902004517 86 0 0.0 0.0 0.00 0.00 0.00 60 1014.7
20260902004017 86 0 0.0 0.0 0.00 0.00 0.00 59 1017.8
20260902003517 87 0 0.0 0.0 0.00 0.00 0.00 59 1017.8
20260902003017 87 0 0.0 0.0 0.00 0.00 0.00 58 1017.8
20260902002517 87 0 0.0 0.0 0.00 0.00 0.00 57 1017.8
20260902002017 88 0 0.0 0.0 0.00 0.00 0.00 57 1017.8
20260902001517 88 0 0.0 0.0 0.00 0.00 0.00 56 1017.8
20260902001017 88 0 0.0 0.0 0.00 0.00 0.00 55 1017.8
20260902000517 89 0 0.0 0.0 0.00 0.00 0.00 55 1017.7
20260902000017 89 0 0.0 0.0 0.00 0.00 0.00 53 1017.8
20260901235517 90 0 0.0 0.0 0.00 0.00 0.00 52 1017.9
20260901235017 91 0 0.0 0.0 0.00 0.00 0.00 51 1017.9
20260901234517 91 0 0.0 0.0 0.00 0.00 0.00 50 1017.9
20260901234017 92 0 0.0 0.0 0.00 0.00 0.00 48 1017.9
20260901233517 92 64 0.0 3.0 0.00 0.00 0.00 47 1018.0
20260901233017 92 75 0.0 2.0 0.00 0.00 0.00 46 1018.0
20260901232517 92 78 0.0 3.0 0.00 0.00 0.00 45 1018.1
20260901232017 93 102 0.0 6.0 0.00 0.00 0.00 45 1018.1
20260901231517 93 0 0.0 0.0 0.00 0.00 0.00 44 1018.0
20260901231017 93 103 0.0 6.0 0.00 0.00 0.00 44 1018.0
20260901230517 93 90 2.0 6.0 0.00 0.00 0.00 43 1018.0
20260901230017 93 69 2.0 6.0 0.00 0.00 0.00 43 1018.0
20260901225517 93 110 0.0 4.0 0.00 0.00 0.00 43 1018.0
20260901225017 93 86 0.0 5.0 0.00 0.00 0.00 42 1018.0
20260901224517 94 56 1.0 5.0 0.00 0.00 0.00 42 1018.0
20260901224017 94 86 0.0 7.0 0.00 0.00 0.00 42 1018.0
20260901223517 94 80 0.0 3.0 0.00 0.00 0.00 42 1018.0
20260901223016 94 82 0.0 7.0 0.00 0.00 0.00 42 1017.9
20260901222517 94 0 2.0 0.0 0.00 0.00 0.00 41 1017.9
20260901222022 94 4 0.0 5.0 0.00 0.00 0.00 41 1017.9
20260901221517 95 90 0.0 5.0 0.00 0.00 0.00 40 1017.8
20260901221017 95 64 0.0 8.0 0.00 0.00 0.00 40 1017.9
20260901220517 95 103 3.0 6.0 0.00 0.00 0.00 40 1017.9
20260901220017 95 97 0.0 8.0 0.00 0.00 0.00 40 1017.9
20260901215517 95 72 2.0 5.0 0.00 0.00 0.00 39 1017.9
20260901215017 96 89 0.0 12.0 0.00 0.00 0.00 38 1017.9
20260901214517 96 86 11.0 10.0 0.00 0.00 0.00 38 1017.9
20260901214017 96 90 0.0 11.0 0.00 0.00 0.00 37 1018.0
20260901213517 97 82 0.0 8.0 0.00 0.00 0.00 37 1017.9
20260901213017 97 120 0.0 6.0 0.00 0.00 0.00 37 1017.9
20260901212517 97 73 1.0 6.0 0.00 0.00 0.00 37 1017.9
20260901212017 97 24 2.0 4.0 0.00 0.00 0.00 37 1018.0
20260901211517 97 41 0.0 10.0 0.00 0.00 0.00 37 1018.1
20260901211017 98 92 5.0 9.0 0.00 0.00 0.00 36 1018.2
20260901210518 98 79 3.0 9.0 0.00 0.00 0.00 36 1018.3
20260901210017 98 68 0.0 9.0 0.00 0.00 0.00 37 1018.2
20260901205517 98 17 3.0 7.0 0.00 0.00 0.00 37 1018.3
20260901205017 98 0 5.0 0.0 0.00 0.00 0.00 36 1018.3
20260901204517 98 95 0.0 11.0 0.00 0.00 0.00 35 1018.3
20260901204017 98 96 0.0 5.0 0.00 0.00 0.00 35 1018.4
20260901203517 98 100 1.0 7.0 0.00 0.00 0.00 36 1018.4
20260901203017 98 100 5.0 7.0 0.00 0.00 0.00 36 1018.5
20260901202517 97 123 2.0 6.0 0.00 0.00 0.00 36 1018.5
20260901202017 97 89 0.0 7.0 0.00 0.00 0.00 38 1018.6
20260901201517 97 65 1.0 6.0 0.00 0.00 0.00 38 1018.7
20260901201017 97 68 3.0 8.0 0.00 0.00 0.00 37 1018.8
20260901200517 96 79 0.0 8.0 0.00 0.00 0.00 39 1018.8
20260901200017 96 90 4.0 8.0 0.00 0.00 0.00 40 1018.9
20260901195517 96 32 7.0 5.0 0.00 0.00 0.00 40 1019.0
20260901195017 95 69 2.0 8.0 0.00 0.00 0.00 39 1019.0
20260901194517 95 6 1.0 5.0 0.00 0.00 0.00 39 1019.0
20260901194017 95 76 0.0 7.0 0.00 0.00 0.00 40 1019.0
20260901193517 95 90 6.0 7.0 0.00 0.00 0.00 39 1019.1
20260901193018 95 86 4.0 7.0 0.00 0.00 0.00 41 1019.2
20260901192517 95 51 0.0 9.0 0.00 0.00 0.00 40 1019.2
20260901192017 95 45 0.0 5.0 0.00 0.00 0.00 40 1019.3
20260901191517 95 72 2.0 9.0 0.00 0.00 0.00 39 1019.4
20260901191017 95 83 7.0 8.0 0.00 0.00 0.00 40 1019.4
20260901190517 95 37 1.0 10.0 0.00 0.00 0.00 39 1019.4
20260901190017 95 104 3.0 5.0 0.00 0.00 0.00 39 1019.5
20260901185517 95 66 4.0 4.0 0.00 0.00 0.00 41 1019.6
20260901185017 95 73 1.0 6.0 0.00 0.00 0.00 41 1019.7
20260901184518 95 65 4.0 6.0 0.00 0.00 0.00 41 1019.7
20260901184017 95 44 0.0 6.0 0.00 0.00 0.00 40 1019.7
20260901183517 95 90 0.0 9.0 0.00 0.00 0.00 40 1019.7
20260901183017 95 78 3.0 8.0 0.00 0.00 0.00 40 1019.8
20260901182517 95 113 6.0 10.0 0.00 0.00 0.00 41 1019.9
20260901182017 95 112 7.0 6.0 0.00 0.00 0.00 41 1019.9
20260901181517 95 44 0.0 4.0 0.00 0.00 0.00 43 1019.9
20260901181017 95 86 2.0 8.0 0.00 0.00 0.00 44 1019.9
20260901180517 94 52 1.0 5.0 0.00 0.00 0.00 42 1019.9
20260901180017 95 90 4.0 7.0 0.00 0.00 0.00 42 1019.9
20260901175517 95 48 4.0 7.0 0.00 0.00 0.00 43 1020.0
20260901175018 94 47 3.0 4.0 0.00 0.00 0.00 44 1019.9
20260901174517 94 78 2.0 7.0 0.00 0.00 0.00 44 1020.0
20260901174018 94 69 5.0 8.0 0.00 0.00 0.00 44 1020.1
20260901173517 94 4 0.0 5.0 0.00 0.00 0.00 44 1020.1
20260901173022 94 150 3.0 5.0 0.00 0.00 0.00 44 1020.2
20260901172517 94 134 1.0 5.0 0.00 0.00 0.00 44 1020.2
20260901172017 93 56 0.0 4.0 0.00 0.00 0.00 45 1020.2
20260901171518 93 71 0.0 4.0 0.00 0.00 0.00 45 1020.2
20260901171017 93 100 3.0 6.0 0.00 0.00 0.00 45 1020.3
20260901170558 93 80 1.0 9.0 0.00 0.00 0.00 45 1020.4
20260901170017 93 44 0.0 5.0 0.00 0.00 0.00 47 1020.5
20260901165517 93 155 0.0 4.0 0.00 0.00 0.00 46 1020.5
20260901165017 92 89 3.0 6.0 0.00 0.00 0.00 47 1020.5
20260901164517 92 89 3.0 7.0 0.00 0.00 0.00 48 1020.5
20260901164018 91 20 4.0 1.0 0.00 0.00 0.00 48 1020.5
20260901163518 91 10 0.0 3.0 0.00 0.00 0.00 50 1020.5